sat.trackr.live / text

‹ back to catalog

STARLINK-30589

NORAD 58103 · 2023-161G

PAYLOAD ACTIVE UNKNOWN

§ Identity

Operator
Country
US
Launch date
2023-10-21
Launch site
AFWTR
Launch vehicle
Mass (kg)
RCS (m²)

Purposes: comms

External: N2YO · Heavens-Above · Gunter

§ Orbital elements

Epoch: 2026-09-20T12:08:35.098656Z

Period
93.85 min
Inclination
53.1617°
Eccentricity
0.0001190
Mean motion
15.34399355 rev/d
Perigee alt
461.9 km
Apogee alt
463.5 km
Semi-major
6,840.8 km
B*
6.0946e-5
RAAN
339.3924°
Arg perigee
87.4385°
Mean anomaly
272.6754°
Rev number
16,426

§ Raw data

STARLINK-305891 58103U 23161G   26263.50596179  .00001683  00000+0  60946-4 0  99972 58103  53.1617 339.3924 0001190  87.4385 272.6754 15.34399355164260

JSON: /api/v1/satellites/58103 · /tle

For live sub-satellite position, see the globe view (requires WebGL).

§ Visibility from observer

Set your observer location to see the next 7 days of passes ≥ 10°. The values pass through the URL so the page stays shareable.

No JS? Fill the form by hand. The geolocation button needs JavaScript.